Weather History for PAOM - January, 2014

Change the Weather History Date:

Monday, January 13, 2014

  Actual Average Record
Temperature  
Mean Temperature -4 °F -  
Max Temperature 0 °F 13 °F 43 °F (1977)
Min Temperature -7 °F -3 °F -34 °F (2012)
Degree Days  
Heating Degree Days 69 60  
Month to date heating degree days 629 773  
Since 1 July heating degree days 5991 6591  
Cooling Degree Days 0    
Month to date cooling degree days 0  
Year to date cooling degree days 0  
Moisture  
Dew Point -11 °F    
Average Humidity 0    
Maximum Humidity 0    
Minimum Humidity 0    
Precipitation  
Precipitation 0.00 in 0.03 in 0.50 in (2000)
Month to date precipitation 0.28 0.42  
Year to date precipitation 0.28 0.42  
Snow  
Snow 0.00 in 0.40 in 6.50 in (2000)
Month to date snowfall 3.9 5.7  
Since 1 July snowfall 36.9 37.5  
Snow Depth 17.00 in    
Sea Level Pressure  
Sea Level Pressure 29.43 in    
Wind  
Wind Speed 10 mph (North)    
Max Wind Speed 17 mph    
Max Gust Speed 21 mph    
Visibility 10 miles    
Events      
T = Trace of Precipitation, MM = Missing Value Source: NWS Daily Summary

Daily Weather History Graph

Daily Weather History Graph

Search for Another Location

Airport or City:

Trip Planner

Search our weather history database for the weather conditions in past years. The results will help you decide how hot, cold, wet, or windy it might be!

Date:

Astronomy

Jan. 13, 2014 Rise Set
Actual Time 11:37 AM AKST 4:44 PM AKST
Civil Twilight 10:26 AM AKST 5:54 PM AKST
Nautical Twilight 9:21 AM AKST 7:00 PM AKST
Astronomical Twilight 8:22 AM AKST 7:59 PM AKST
Moon 3:20 PM AKST (1/13) 9:26 AM AKST (1/13)
Length of Visible Light 7h 27m
Length of Day
5h 07m
Waxing Gibbous, 95% of the Moon is Illuminated
Jan 13
Waxing Gibbous
Jan 15
Full
Jan 23
Last Quarter
Jan 30
New
Feb 6
First Quarter

Hourly Weather History & Observations

Time (AKST) Temp. Windchill Dew Point Humidity Pressure Visibility Wind Dir Wind Speed Gust Speed Precip Events Conditions
12:53 AM -2.0 °F -18.7 °F -9.9 °F 69% 29.44 in 10.0 mi North 10.4 mph - N/A   Scattered Clouds
1:53 AM -2.9 °F -19.8 °F -9.9 °F 72% 29.45 in 10.0 mi North 10.4 mph - N/A   Partly Cloudy
2:53 AM -4.0 °F -20.2 °F -11.0 °F 72% 29.46 in 10.0 mi North 9.2 mph - N/A   Partly Cloudy
3:53 AM -0.9 °F -19.9 °F -9.0 °F 69% 29.46 in 10.0 mi NNE 13.8 mph 20.7 mph N/A   Partly Cloudy
4:53 AM -2.0 °F -18.7 °F -9.9 °F 69% 29.47 in 10.0 mi North 10.4 mph - N/A   Partly Cloudy
5:53 AM -4.0 °F -17.8 °F -11.0 °F 72% 29.47 in 10.0 mi NNW 6.9 mph - N/A   Clear
6:53 AM -5.1 °F -19.1 °F -11.9 °F 72% 29.47 in 10.0 mi North 6.9 mph - N/A   Partly Cloudy
7:53 AM -2.0 °F -18.7 °F -9.9 °F 69% 29.47 in 10.0 mi NNE 10.4 mph - N/A   Partly Cloudy
8:53 AM -5.1 °F -21.5 °F -11.9 °F 72% 29.47 in 10.0 mi North 9.2 mph - N/A   Clear
9:53 AM -2.9 °F -17.7 °F -9.9 °F 72% 29.47 in 10.0 mi North 8.1 mph - N/A   Clear
10:53 AM -2.9 °F -19.8 °F -11.0 °F 68% 29.48 in 10.0 mi North 10.4 mph - N/A   Clear
11:53 AM -2.0 °F -19.6 °F -9.9 °F 69% 29.48 in 10.0 mi North 11.5 mph 20.7 mph N/A   Clear
12:53 PM -2.0 °F -20.5 °F -11.0 °F 66% 29.47 in 10.0 mi NNE 12.7 mph 20.7 mph N/A   Clear
1:53 PM -0.9 °F -18.3 °F -9.9 °F 66% 29.47 in 10.0 mi NNE 11.5 mph - N/A   Clear
2:53 PM -2.0 °F -16.6 °F -11.0 °F 66% 29.45 in 10.0 mi North 8.1 mph - N/A   Partly Cloudy
3:53 PM -2.9 °F -19.8 °F -11.0 °F 68% 29.41 in 10.0 mi North 10.4 mph - N/A   Clear
4:53 PM -2.0 °F -20.5 °F -11.0 °F 66% 29.39 in 10.0 mi North 12.7 mph - N/A   Scattered Clouds
5:53 PM -2.9 °F -20.8 °F -11.0 °F 68% 29.37 in 10.0 mi NNE 11.5 mph - N/A   Scattered Clouds
6:53 PM -2.9 °F -16.5 °F -11.0 °F 68% 29.36 in 10.0 mi North 6.9 mph - N/A   Scattered Clouds
7:53 PM -2.0 °F -20.5 °F -11.9 °F 63% 29.35 in 10.0 mi NNE 12.7 mph 19.6 mph N/A   Mostly Cloudy
8:53 PM -2.0 °F -20.5 °F -11.9 °F 63% 29.41 in 10.0 mi North 12.7 mph - N/A   Mostly Cloudy
9:53 PM -4.0 °F -16.3 °F -11.9 °F 69% 29.40 in 10.0 mi North 5.8 mph - N/A   Mostly Cloudy
10:53 PM -0.9 °F -19.1 °F -11.0 °F 62% 29.34 in 10.0 mi North 12.7 mph - N/A   Mostly Cloudy
11:53 PM -4.0 °F -19.0 °F -13.0 °F 65% 29.31 in 10.0 mi NNW 8.1 mph - N/A   Mostly Cloudy